Terminal Aerodrome Forecast
Issued by NWS

Home | Current Version | Previous Version | Text Only | Print | Product List | Glossary On
Versions: 1 2 3 4 5 6 7 8 9 10 11 12 13 14 15 16 17 18 19 20 21 22 23 24 25
000
FTUS45 KRIW 231723
TAFPNA
TAF
KPNA 231723Z 2318/2418 30008KT 6SM FU SKC
     FM231900 29014G24KT P6SM SKC
     FM240100 29006KT P6SM SKC
     FM241100 29006KT 6SM FU SKC
      AMD LTD TO CLD VIS AND WIND=

USA.gov is the U.S. government's official web portal to all federal, state and local government web resources and services.